| time (UTC) | temp F | wind direction | speed knots | gust knots | rain 1hr in | rain 24hr in | rain mn in | humidity % | barometer mb |
| 20260506092247 | 48 | 93 | 4.3 | 7.0 | 0.00 | 0.00 | 0.00 | 77 | 1014.0 |
| 20260506091748 | 48 | 25 | 0.9 | 4.3 | 0.00 | 0.00 | 0.00 | 77 | 1014.0 |
| 20260506091247 | 48 | 41 | 0.9 | 11.3 | 0.00 | 0.00 | 0.00 | 77 | 1014.1 |
| 20260506090247 | 48 | 29 | 0.9 | 6.1 | 0.00 | 0.00 | 0.00 | 76 | 1013.9 |
| 20260506085747 | 48 | 39 | 2.6 | 6.1 | 0.00 | 0.00 | 0.00 | 76 | 1013.8 |
| 20260506085247 | 48 | 64 | 1.7 | 4.3 | 0.00 | 0.00 | 0.00 | 76 | 1013.9 |
| 20260506084748 | 48 | 25 | 1.7 | 4.3 | 0.00 | 0.00 | 0.00 | 76 | 1013.9 |
| 20260506084247 | 48 | 46 | 1.7 | 6.1 | 0.00 | 0.00 | 0.00 | 76 | 1013.9 |
| 20260506083747 | 48 | 3 | 0.9 | 6.1 | 0.00 | 0.00 | 0.00 | 75 | 1013.7 |
| 20260506083247 | 48 | 337 | 1.7 | 6.1 | 0.00 | 0.00 | 0.00 | 75 | 1013.3 |
| 20260506082747 | 48 | 15 | 1.7 | 6.1 | 0.00 | 0.00 | 0.00 | 75 | 1013.0 |
| 20260506082247 | 48 | 10 | 0.9 | 6.1 | 0.00 | 0.00 | 0.00 | 75 | 1013.0 |
| 20260506081747 | 48 | 10 | 0.9 | 7.0 | 0.00 | 0.00 | 0.00 | 75 | 1013.0 |
| 20260506081247 | 48 | 52 | 1.7 | 8.7 | 0.00 | 0.00 | 0.00 | 75 | 1013.1 |
| 20260506080747 | 48 | 68 | 7.0 | 8.7 | 0.00 | 0.00 | 0.00 | 75 | 1013.0 |
| 20260506073247 | 48 | 26 | 1.7 | 7.8 | 0.00 | 0.00 | 0.00 | 74 | 1012.3 |
| 20260506072747 | 48 | 91 | 2.6 | 11.3 | 0.00 | 0.00 | 0.00 | 74 | 1012.3 |
| 20260506072247 | 48 | 79 | 2.6 | 11.3 | 0.00 | 0.00 | 0.00 | 73 | 1012.3 |
| 20260506071748 | 48 | 95 | 1.7 | 10.4 | 0.00 | 0.00 | 0.00 | 73 | 1012.3 |
| 20260506070247 | 49 | 107 | 0.9 | 11.3 | 0.00 | 0.00 | 0.00 | 73 | 1012.4 |
| 20260506062247 | 49 | 355 | 1.7 | 8.7 | 0.00 | 0.00 | 0.00 | 73 | 1012.4 |
| 20260506060248 | 49 | 86 | 2.6 | 10.4 | 0.00 | 0.00 | 0.00 | 73 | 1012.4 |
| 20260506050747 | 49 | 143 | 4.3 | 12.2 | 0.00 | 0.00 | 0.00 | 71 | 1012.1 |
| 20260506050248 | 49 | 69 | 12.2 | 12.2 | 0.00 | 0.00 | 0.00 | 71 | 1012.3 |
| 20260506044247 | 49 | 89 | 1.7 | 11.3 | 0.00 | 0.00 | 0.00 | 70 | 1012.4 |
| 20260506043748 | 49 | 61 | 7.8 | 10.4 | 0.00 | 0.00 | 0.00 | 70 | 1012.2 |
| 20260506043247 | 49 | 65 | 0.9 | 11.3 | 0.00 | 0.00 | 0.00 | 70 | 1012.2 |
| 20260506042747 | 49 | 62 | 2.6 | 11.3 | 0.00 | 0.00 | 0.00 | 70 | 1012.2 |
| 20260506042247 | 49 | 89 | 5.2 | 10.4 | 0.00 | 0.00 | 0.00 | 71 | 1012.3 |
| 20260506041748 | 49 | 83 | 1.7 | 12.2 | 0.00 | 0.00 | 0.00 | 72 | 1012.1 |
| 20260506040747 | 49 | 61 | 12.2 | 13.9 | 0.00 | 0.00 | 0.00 | 73 | 1012.1 |
| 20260506040247 | 49 | 94 | 4.3 | 12.2 | 0.00 | 0.00 | 0.00 | 73 | 1012.1 |
| 20260506035747 | 49 | 113 | 2.6 | 11.3 | 0.00 | 0.00 | 0.00 | 74 | 1012.2 |
| 20260506034747 | 49 | 61 | 0.9 | 12.2 | 0.00 | 0.00 | 0.00 | 75 | 1012.0 |
| 20260506034248 | 49 | 61 | 6.1 | 12.2 | 0.00 | 0.00 | 0.00 | 75 | 1011.9 |
| 20260506033748 | 49 | 116 | 4.3 | 17.4 | 0.00 | 0.00 | 0.00 | 76 | 1011.7 |
| 20260506033248 | 49 | 51 | 4.3 | 17.4 | 0.00 | 0.00 | 0.00 | 76 | 1011.5 |
| 20260506032748 | 49 | 350 | 4.3 | 12.2 | 0.00 | 0.00 | 0.00 | 77 | 1011.2 |
| 20260506032247 | 49 | 70 | 6.1 | 14.8 | 0.00 | 0.00 | 0.00 | 77 | 1011.2 |
| 20260506031747 | 49 | 69 | 2.6 | 14.8 | 0.00 | 0.00 | 0.00 | 78 | 1011.4 |
| 20260506031247 | 49 | 73 | 1.7 | 12.2 | 0.00 | 0.00 | 0.00 | 79 | 1011.4 |
| 20260506030747 | 49 | 47 | 6.1 | 12.2 | 0.00 | 0.00 | 0.00 | 79 | 1011.4 |
| 20260506030247 | 49 | 41 | 5.2 | 14.8 | 0.00 | 0.00 | 0.00 | 79 | 1011.5 |
| 20260506025747 | 49 | 29 | 10.4 | 17.4 | 0.00 | 0.00 | 0.00 | 79 | 1011.5 |
| 20260506025247 | 49 | 82 | 2.6 | 17.4 | 0.00 | 0.00 | 0.00 | 79 | 1011.5 |
| 20260506024747 | 49 | 68 | 2.6 | 10.4 | 0.00 | 0.00 | 0.00 | 80 | 1012.0 |
| 20260506024247 | 49 | 103 | 0.9 | 10.4 | 0.00 | 0.00 | 0.00 | 80 | 1012.1 |
| 20260506023748 | 49 | 46 | 1.7 | 10.4 | 0.00 | 0.00 | 0.00 | 81 | 1012.2 |
| 20260506023247 | 49 | 39 | 2.6 | 10.4 | 0.00 | 0.00 | 0.00 | 81 | 1012.1 |
| 20260506022747 | 49 | 78 | 0.9 | 7.0 | 0.00 | 0.00 | 0.00 | 82 | 1011.7 |
| 20260506022247 | 49 | 38 | 1.7 | 7.8 | 0.00 | 0.00 | 0.00 | 82 | 1011.7 |
| 20260506021747 | 49 | 74 | 1.7 | 8.7 | 0.00 | 0.00 | 0.00 | 82 | 1011.7 |
| 20260506021248 | 48 | 39 | 1.7 | 13.9 | 0.00 | 0.00 | 0.00 | 82 | 1011.4 |
| 20260506020747 | 48 | 84 | 1.7 | 13.9 | 0.00 | 0.00 | 0.00 | 82 | 1011.4 |
| 20260506020247 | 48 | 88 | 2.6 | 14.8 | 0.00 | 0.00 | 0.00 | 82 | 1011.3 |
| 20260506015247 | 49 | 15 | 7.0 | 11.3 | 0.00 | 0.00 | 0.00 | 82 | 1011.4 |
| 20260506014747 | 49 | 354 | 1.7 | 11.3 | 0.00 | 0.00 | 0.00 | 82 | 1011.2 |
| 20260506014247 | 49 | 35 | 6.1 | 11.3 | 0.00 | 0.00 | 0.00 | 82 | 1011.0 |
| 20260506013747 | 49 | 359 | 0.9 | 6.1 | 0.00 | 0.00 | 0.00 | 81 | 1011.1 |
| 20260506013247 | 49 | 30 | 0.9 | 6.1 | 0.00 | 0.00 | 0.00 | 81 | 1011.1 |
| 20260506012747 | 49 | 355 | 5.2 | 7.0 | 0.00 | 0.00 | 0.00 | 80 | 1011.1 |
| 20260506010747 | 50 | 53 | 2.6 | 7.0 | 0.00 | 0.00 | 0.00 | 79 | 1010.4 |
| 20260506005747 | 49 | 43 | 5.2 | 6.1 | 0.00 | 0.00 | 0.00 | 79 | 1010.3 |
| 20260506005247 | 50 | 340 | 0.9 | 10.4 | 0.00 | 0.00 | 0.00 | 79 | 1009.9 |
| 20260506004747 | 50 | 57 | 1.7 | 10.4 | 0.00 | 0.00 | 0.00 | 79 | 1009.7 |
| 20260506004247 | 50 | 6 | 1.7 | 13.9 | 0.00 | 0.00 | 0.00 | 79 | 1009.4 |
| 20260506003747 | 50 | 82 | 2.6 | 13.9 | 0.00 | 0.00 | 0.00 | 79 | 1009.5 |
| 20260506003247 | 50 | 10 | 0.9 | 11.3 | 0.00 | 0.00 | 0.00 | 79 | 1009.6 |
| 20260506002747 | 50 | 45 | 1.7 | 11.3 | 0.00 | 0.00 | 0.00 | 78 | 1009.6 |
| 20260506002247 | 50 | 25 | 1.7 | 12.2 | 0.00 | 0.00 | 0.00 | 78 | 1009.5 |
| 20260506001748 | 50 | 39 | 1.7 | 12.2 | 0.00 | 0.00 | 0.00 | 77 | 1009.5 |
| 20260506000748 | 50 | 51 | 1.7 | 11.3 | 0.00 | 0.00 | 0.00 | 77 | 1009.4 |
| 20260506000247 | 50 | 20 | 11.3 | 11.3 | 0.00 | 0.00 | 0.00 | 77 | 1009.3 |
| 20260505235247 | 51 | 27 | 2.6 | 4.3 | 0.00 | 0.00 | 0.00 | 77 | 1009.1 |
| 20260505234747 | 51 | 68 | 1.7 | 6.1 | 0.00 | 0.00 | 0.00 | 76 | 1009.6 |
| 20260505234247 | 51 | 61 | 0.9 | 7.0 | 0.00 | 0.00 | 0.00 | 76 | 1009.8 |
| 20260505233747 | 51 | 71 | 2.6 | 13.9 | 0.00 | 0.00 | 0.00 | 76 | 1009.7 |
| 20260505233247 | 51 | 89 | 1.7 | 13.9 | 0.00 | 0.00 | 0.00 | 75 | 1009.8 |
| 20260505232247 | 51 | 39 | 1.7 | 12.2 | 0.00 | 0.00 | 0.00 | 74 | 1009.7 |
| 20260505231747 | 51 | 45 | 1.7 | 14.8 | 0.00 | 0.00 | 0.00 | 74 | 1009.4 |
| 20260505231247 | 51 | 92 | 1.7 | 14.8 | 0.00 | 0.00 | 0.00 | 74 | 1009.2 |
| 20260505230747 | 51 | 95 | 4.3 | 13.9 | 0.00 | 0.00 | 0.00 | 74 | 1009.0 |
| 20260505230247 | 51 | 89 | 6.1 | 13.9 | 0.00 | 0.00 | 0.00 | 74 | 1009.0 |
| 20260505225248 | 51 | 10 | 0.9 | 17.4 | 0.00 | 0.00 | 0.00 | 73 | 1009.0 |
| 20260505224747 | 51 | 45 | 0.9 | 17.4 | 0.00 | 0.00 | 0.00 | 73 | 1009.1 |
| 20260505223747 | 52 | 74 | 6.1 | 12.2 | 0.00 | 0.00 | 0.00 | 73 | 1009.1 |
| 20260505223247 | 52 | 95 | 1.7 | 10.4 | 0.00 | 0.00 | 0.00 | 73 | 1009.1 |
| 20260505222747 | 52 | 41 | 1.7 | 10.4 | 0.00 | 0.00 | 0.00 | 74 | 1009.0 |
| 20260505222247 | 52 | 287 | 0.9 | 17.4 | 0.00 | 0.00 | 0.00 | 74 | 1008.8 |
| 20260505221247 | 52 | 56 | 2.6 | 15.6 | 0.00 | 0.00 | 0.00 | 74 | 1008.6 |
| 20260505220747 | 52 | 10 | 1.7 | 15.6 | 0.00 | 0.00 | 0.00 | 74 | 1009.0 |
| 20260505220247 | 52 | 26 | 6.1 | 17.4 | 0.00 | 0.00 | 0.00 | 74 | 1008.9 |
| 20260505215747 | 52 | 20 | 6.1 | 17.4 | 0.00 | 0.00 | 0.00 | 73 | 1008.9 |
| 20260505215247 | 53 | 51 | 1.7 | 14.8 | 0.00 | 0.00 | 0.00 | 74 | 1008.2 |
| 20260505214747 | 53 | 110 | 2.6 | 19.1 | 0.00 | 0.00 | 0.00 | 73 | 1007.9 |
| 20260505213747 | 53 | 82 | 2.6 | 12.2 | 0.00 | 0.00 | 0.00 | 74 | 1008.0 |
| 20260505213247 | 53 | 49 | 1.7 | 15.6 | 0.00 | 0.00 | 0.00 | 74 | 1008.0 |
| 20260505211747 | 53 | 103 | 1.7 | 15.6 | 0.00 | 0.00 | 0.00 | 73 | 1007.5 |
| 20260505211247 | 54 | 64 | 4.3 | 14.8 | 0.00 | 0.00 | 0.00 | 73 | 1007.9 |
| 20260505210747 | 53 | 61 | 13.0 | 14.8 | 0.00 | 0.00 | 0.00 | 74 | 1007.5 |
| 20260505210247 | 53 | 2 | 5.2 | 17.4 | 0.00 | 0.00 | 0.00 | 75 | 1007.7 |
| 20260505205747 | 53 | 359 | 5.2 | 17.4 | 0.00 | 0.00 | 0.00 | 74 | 1008.2 |
| 20260505205247 | 53 | 68 | 2.6 | 12.2 | 0.00 | 0.00 | 0.00 | 74 | 1008.6 |
| 20260505204747 | 53 | 90 | 2.6 | 14.8 | 0.00 | 0.00 | 0.00 | 74 | 1008.6 |
| 20260505204247 | 53 | 84 | 10.4 | 17.4 | 0.00 | 0.00 | 0.00 | 75 | 1008.5 |
| 20260505203747 | 53 | 74 | 6.1 | 17.4 | 0.00 | 0.00 | 0.00 | 74 | 1008.2 |
| 20260505203247 | 53 | 72 | 5.2 | 13.9 | 0.00 | 0.00 | 0.00 | 74 | 1008.0 |
| 20260505202747 | 54 | 15 | 4.3 | 14.8 | 0.00 | 0.00 | 0.00 | 74 | 1007.8 |
| 20260505201747 | 54 | 104 | 1.7 | 14.8 | 0.00 | 0.00 | 0.00 | 75 | 1007.6 |
| 20260505201247 | 54 | 101 | 1.7 | 15.6 | 0.00 | 0.00 | 0.00 | 75 | 1007.7 |
| 20260505200747 | 54 | 10 | 12.2 | 15.6 | 0.00 | 0.00 | 0.00 | 74 | 1007.5 |
| 20260505195747 | 54 | 34 | 11.3 | 17.4 | 0.00 | 0.00 | 0.00 | 75 | 1007.5 |
| 20260505195247 | 53 | 58 | 7.8 | 18.2 | 0.00 | 0.00 | 0.00 | 75 | 1007.5 |
| 20260505194747 | 53 | 73 | 1.7 | 18.2 | 0.00 | 0.00 | 0.00 | 76 | 1007.5 |
| 20260505194247 | 53 | 40 | 2.6 | 15.6 | 0.00 | 0.00 | 0.00 | 76 | 1007.5 |
| 20260505193747 | 53 | 54 | 4.3 | 14.8 | 0.00 | 0.00 | 0.00 | 78 | 1007.5 |
| 20260505193247 | 53 | 33 | 1.7 | 13.9 | 0.00 | 0.00 | 0.00 | 78 | 1007.4 |
| 20260505192748 | 53 | 325 | 0.9 | 14.8 | 0.00 | 0.00 | 0.00 | 79 | 1007.5 |
| 20260505192247 | 53 | 84 | 10.4 | 15.6 | 0.00 | 0.00 | 0.00 | 80 | 1007.3 |
| 20260505191748 | 53 | 20 | 5.2 | 15.6 | 0.00 | 0.00 | 0.00 | 79 | 1007.2 |
| 20260505191247 | 54 | 38 | 12.2 | 15.6 | 0.00 | 0.00 | 0.00 | 79 | 1007.4 |
| 20260505190747 | 54 | 327 | 9.6 | 14.8 | 0.00 | 0.00 | 0.00 | 80 | 1007.5 |
| 20260505190247 | 54 | 346 | 6.1 | 19.1 | 0.00 | 0.00 | 0.00 | 80 | 1007.3 |
| 20260505185747 | 54 | 10 | 14.8 | 19.1 | 0.00 | 0.00 | 0.00 | 80 | 1007.3 |
| 20260505185247 | 54 | 43 | 6.1 | 15.6 | 0.00 | 0.00 | 0.00 | 79 | 1007.2 |
| 20260505184747 | 54 | 50 | 11.3 | 15.6 | 0.00 | 0.00 | 0.00 | 79 | 1007.1 |
| 20260505184247 | 55 | 85 | 1.7 | 7.8 | 0.00 | 0.00 | 0.00 | 79 | 1007.1 |
| 20260505183747 | 55 | 38 | 1.7 | 10.4 | 0.00 | 0.00 | 0.00 | 79 | 1007.1 |
| 20260505183248 | 55 | 61 | 1.7 | 10.4 | 0.00 | 0.00 | 0.00 | 79 | 1007.0 |
| 20260505182247 | 55 | 330 | 1.7 | 15.6 | 0.00 | 0.00 | 0.00 | 79 | 1006.8 |
| 20260505181747 | 55 | 39 | 2.6 | 17.4 | 0.00 | 0.00 | 0.00 | 79 | 1006.6 |
| 20260505181247 | 55 | 41 | 1.7 | 19.1 | 0.00 | 0.00 | 0.00 | 79 | 1006.6 |
| 20260505180748 | 55 | 53 | 2.6 | 20.0 | 0.00 | 0.00 | 0.00 | 79 | 1006.6 |
| 20260505180247 | 55 | 29 | 10.4 | 20.0 | 0.00 | 0.00 | 0.00 | 78 | 1006.5 |
| 20260505175747 | 55 | 10 | 0.9 | 18.2 | 0.00 | 0.00 | 0.00 | 79 | 1006.3 |
| 20260505175247 | 55 | 10 | 5.2 | 18.2 | 0.00 | 0.00 | 0.00 | 79 | 1006.2 |
| 20260505174747 | 55 | 126 | 2.6 | 17.4 | 0.00 | 0.00 | 0.00 | 79 | 1006.0 |
| 20260505174247 | 55 | 43 | 1.7 | 20.0 | 0.00 | 0.00 | 0.00 | 79 | 1005.9 |
| 20260505173748 | 56 | 26 | 0.9 | 20.0 | 0.00 | 0.00 | 0.00 | 80 | 1005.9 |
| 20260505173247 | 55 | 83 | 4.3 | 18.2 | 0.00 | 0.00 | 0.00 | 80 | 1005.9 |
| 20260505172748 | 56 | 61 | 2.6 | 15.6 | 0.00 | 0.00 | 0.00 | 80 | 1006.0 |
| 20260505172247 | 55 | 358 | 0.9 | 17.4 | 0.00 | 0.00 | 0.00 | 81 | 1005.7 |
| 20260505171747 | 56 | 46 | 4.3 | 17.4 | 0.00 | 0.00 | 0.00 | 80 | 1005.8 |
| 20260505171247 | 56 | 56 | 2.6 | 19.1 | 0.00 | 0.00 | 0.00 | 81 | 1005.9 |
| 20260505170747 | 56 | 300 | 1.7 | 19.1 | 0.00 | 0.00 | 0.00 | 80 | 1005.8 |
| 20260505170247 | 56 | 330 | 1.7 | 12.2 | 0.00 | 0.00 | 0.00 | 81 | 1005.6 |
| 20260505165247 | 56 | 326 | 2.6 | 10.4 | 0.00 | 0.00 | 0.00 | 81 | 1005.4 |
| 20260505164747 | 56 | 93 | 4.3 | 18.2 | 0.00 | 0.00 | 0.00 | 82 | 1005.2 |
| 20260505164248 | 56 | 40 | 9.6 | 18.2 | 0.00 | 0.00 | 0.00 | 82 | 1005.0 |
| 20260505163747 | 56 | 30 | 7.8 | 18.2 | 0.00 | 0.00 | 0.00 | 82 | 1004.8 |
| 20260505163247 | 56 | 68 | 1.7 | 18.2 | 0.00 | 0.00 | 0.00 | 82 | 1004.7 |
| 20260505162747 | 56 | 44 | 10.4 | 19.1 | 0.00 | 0.00 | 0.00 | 82 | 1004.5 |
| 20260505162248 | 56 | 53 | 1.7 | 19.1 | 0.00 | 0.00 | 0.00 | 82 | 1004.3 |
| 20260505161748 | 57 | 76 | 5.2 | 17.4 | 0.00 | 0.00 | 0.00 | 82 | 1004.4 |
| 20260505160747 | 57 | 315 | 4.3 | 19.1 | 0.00 | 0.00 | 0.00 | 82 | 1003.8 |
| 20260505160247 | 58 | 2 | 10.4 | 19.1 | 0.00 | 0.00 | 0.00 | 82 | 1003.7 |
| 20260505153247 | 60 | 20 | 5.2 | 15.6 | 0.00 | 0.00 | 0.00 | 83 | 1003.2 |
| 20260505152747 | 61 | 5 | 6.1 | 20.0 | 0.00 | 0.00 | 0.00 | 82 | 1003.2 |
| 20260505152247 | 61 | 47 | 15.6 | 20.0 | 0.00 | 0.00 | 0.00 | 82 | 1003.1 |
| 20260505151247 | 62 | 36 | 5.2 | 25.2 | 0.00 | 0.00 | 0.00 | 81 | 1002.8 |
| 20260505150747 | 63 | 20 | 9.6 | 18.2 | 0.00 | 0.00 | 0.00 | 79 | 1002.7 |
| 20260505150247 | 65 | 61 | 10.4 | 14.8 | 0.00 | 0.00 | 0.00 | 79 | 1002.6 |
| 20260505140247 | 67 | 118 | 2.6 | 7.8 | 0.00 | 0.00 | 0.00 | 85 | 1001.4 |
| 20260505130247 | 65 | 125 | 0.9 | 10.4 | 0.00 | 0.00 | 0.00 | 87 | 1001.1 |
| 20260505124747 | 65 | 65 | 2.6 | 10.4 | 0.00 | 0.00 | 0.00 | 86 | 1001.1 |
| 20260505124248 | 65 | 116 | 2.6 | 10.4 | 0.00 | 0.00 | 0.00 | 86 | 1001.0 |
| 20260505123748 | 65 | 82 | 2.6 | 10.4 | 0.00 | 0.00 | 0.00 | 86 | 1001.0 |
| 20260505123247 | 65 | 76 | 1.7 | 10.4 | 0.00 | 0.00 | 0.00 | 85 | 1001.0 |
| 20260505122247 | 65 | 94 | 1.7 | 8.7 | 0.00 | 0.00 | 0.00 | 85 | 1000.8 |
| 20260505121747 | 66 | 96 | 1.7 | 8.7 | 0.00 | 0.00 | 0.00 | 84 | 1000.8 |
| 20260505121247 | 66 | 114 | 7.0 | 8.7 | 0.00 | 0.00 | 0.00 | 83 | 1000.7 |
| 20260505120247 | 67 | 80 | 2.6 | 7.8 | 0.00 | 0.00 | 0.00 | 81 | 1000.6 |
| 20260505115747 | 68 | 84 | 2.6 | 4.3 | 0.00 | 0.00 | 0.00 | 80 | 1000.5 |
| 20260505114747 | 69 | 103 | 5.2 | 6.1 | 0.00 | 0.00 | 0.00 | 78 | 1000.5 |
| 20260505113747 | 69 | 60 | 0.9 | 2.6 | 0.00 | 0.00 | 0.00 | 77 | 1000.1 |
| 20260505113248 | 70 | 15 | 0.9 | 0.0 | 0.00 | 0.00 | 0.00 | 76 | 1000.1 |
| 20260505112747 | 70 | 15 | 0.9 | 4.3 | 0.00 | 0.00 | 0.00 | 76 | 999.9 |
| 20260505112247 | 70 | 15 | 0.9 | 4.3 | 0.00 | 0.00 | 0.00 | 75 | 999.9 |
| 20260505111747 | 70 | 348 | 0.9 | 0.9 | 0.00 | 0.00 | 0.00 | 75 | 1000.0 |
| 20260505111247 | 71 | 347 | 0.9 | 3.5 | 0.00 | 0.00 | 0.00 | 74 | 1000.1 |
| 20260505110747 | 71 | 347 | 0.9 | 3.5 | 0.00 | 0.00 | 0.00 | 74 | 1000.0 |
| 20260505110247 | 71 | 311 | 1.7 | 4.3 | 0.00 | 0.00 | 0.00 | 73 | 999.9 |
| 20260505101747 | 72 | 236 | 1.7 | 12.2 | 0.00 | 0.00 | 0.00 | 73 | 998.7 |
| 20260505101248 | 72 | 210 | 0.9 | 11.3 | 0.00 | 0.00 | 0.00 | 73 | 998.7 |
| 20260505100747 | 72 | 161 | 5.2 | 11.3 | 0.00 | 0.00 | 0.00 | 73 | 998.6 |
| 20260505100247 | 72 | 241 | 0.9 | 11.3 | 0.00 | 0.00 | 0.00 | 73 | 998.4 |
| 20260505095747 | 72 | 217 | 0.9 | 11.3 | 0.00 | 0.00 | 0.00 | 73 | 998.5 |
| 20260505095247 | 72 | 269 | 2.6 | 8.7 | 0.00 | 0.00 | 0.00 | 73 | 998.4 |
| 20260505094747 | 72 | 189 | 1.7 | 3.5 | 0.00 | 0.00 | 0.00 | 73 | 998.4 |
| 20260505094247 | 72 | 271 | 1.7 | 6.1 | 0.00 | 0.00 | 0.00 | 72 | 998.4 |
| 20260505093747 | 72 | 240 | 1.7 | 7.8 | 0.00 | 0.00 | 0.00 | 72 | 998.3 |
| 20260505092747 | 72 | 234 | 2.6 | 6.1 | 0.00 | 0.00 | 0.00 | 72 | 998.4 |